This is the latest recevied weather packets stored in our database for station/object IK2CHZ-3. If no packets are shown the sender has not sent any weather packets the latest 10 day(s).
| Time | Temp. | Humidity | Pressure | Rain* | Wind** | Luminosity | Snow |
|---|---|---|---|---|---|---|---|
| 1777615321 | 12.78° C | 53% | 1027.7 hPa | 0 mm | - | - | - |
| 1777614662 | 12.22° C | 53% | 1027.7 hPa | 0 mm | - | - | - |
| 1777614106 | 12.22° C | 53% | 1027.6 hPa | 0 mm | - | - | - |
| 1777614000 | 12.22° C | 53% | 1027.6 hPa | 0 mm | - | - | - |
| 1777613342 | 12.22° C | 54% | 1027.4 hPa | 0 mm | - | - | - |
| 1777612682 | 11.67° C | 55% | 1027.4 hPa | 0 mm | - | - | - |
| 1777612023 | 11.11° C | 56% | 1027.3 hPa | 0 mm | - | - | - |
| 1777611362 | 11.11° C | 59% | 1027.2 hPa | 0 mm | - | - | - |
| 1777610702 | 11.11° C | 59% | 1027.1 hPa | 0 mm | - | - | - |
| 1777610041 | 11.11° C | 59% | 1027 hPa | 0 mm | - | - | - |
| 1777609494 | 10.56° C | 59% | 1026.8 hPa | 0 mm | - | - | - |
| 1777609382 | 10.56° C | 59% | 1026.8 hPa | 0 mm | - | - | - |
| 1777608724 | 10.56° C | 59% | 1026.7 hPa | 0 mm | - | - | - |
| 1777608061 | 10.56° C | 60% | 1026.6 hPa | 0 mm | - | - | - |
| 1777607402 | 10.56° C | 61% | 1026.4 hPa | 0 mm | - | - | - |
| 1777606742 | 10.56° C | 61% | 1026.3 hPa | 0 mm | - | - | - |
| 1777606082 | 10.56° C | 61% | 1026.4 hPa | 0 mm | - | - | - |
| 1777605420 | 10.56° C | 60% | 1026.3 hPa | 0 mm | - | - | - |
| 1777604762 | 10.56° C | 60% | 1026.3 hPa | 0 mm | - | - | - |
| 1777604102 | 10.56° C | 60% | 1026.2 hPa | 0 mm | - | - | - |
| 1777603441 | 11.11° C | 59% | 1026.1 hPa | 0 mm | - | - | - |
| 1777602782 | 11.11° C | 58% | 1026.2 hPa | 0 mm | - | - | - |
| 1777602175 | 11.11° C | 58% | 1026.4 hPa | 0 mm | - | - | - |
| 1777602121 | 11.11° C | 58% | 1026.4 hPa | 0 mm | - | - | - |
| 1777601460 | 11.11° C | 57% | 1026.5 hPa | 0 mm | - | - | - |
* Rain latest hour (hover to see other rain measurements)
** Current wind speed in m/s (hover to see current wind gust speed)